WZZ3606 LCLK-EPKK

Flight info

Callsign WZZ3606
Flight time N/A
Altitude 34000
Route PHA DCT GENOS DCT PEDER M855 TOMBI UA16 AYT UQ23 OSVEL UL619 MAKOL/N0449F360 DCT IVDEK DCT OPT DCT KENIN DCT LENOV
Aircraft A21N/M-SDE1E2E3FGIJ1J4RWXY/LB1

Departure

Time N/A
Airport Larnaca International Airport (LCLK)

Arrival

Time 2026-05-01 10:03
Airport Kraków John Paul II International Airport (EPKK)
Time Latitude Longitude Altitude Speed Heading
2026-05-01 08:48 43.89758 27.31073 36289 ft 421 kts 320°
2026-05-01 08:49 43.94338 27.26029 36299 ft 421 kts 320°
2026-05-01 08:49 43.98879 27.21015 36306 ft 421 kts 320°
2026-05-01 08:50 44.03469 27.15937 36298 ft 421 kts 320°
2026-05-01 08:50 44.08039 27.10872 36297 ft 421 kts 320°
2026-05-01 08:51 44.12612 27.05792 36304 ft 421 kts 320°
2026-05-01 08:51 44.17186 27.00702 36305 ft 421 kts 320°
2026-05-01 08:52 44.21742 26.95623 36306 ft 421 kts 320°
2026-05-01 08:52 44.26309 26.90519 36309 ft 421 kts 320°
2026-05-01 08:53 44.30887 26.85392 36306 ft 421 kts 320°
2026-05-01 08:53 44.35454 26.80268 36310 ft 421 kts 320°
2026-05-01 08:54 44.39974 26.75185 36309 ft 420 kts 320°
2026-05-01 08:54 44.44537 26.70043 36310 ft 420 kts 320°
2026-05-01 08:55 44.49201 26.65162 36310 ft 421 kts 326°
2026-05-01 08:55 44.54103 26.60687 36310 ft 421 kts 327°
2026-05-01 08:56 44.58995 26.56164 36314 ft 421 kts 324°
2026-05-01 08:56 44.63592 26.51174 36316 ft 421 kts 321°
2026-05-01 08:57 44.68173 26.46017 36317 ft 422 kts 321°
2026-05-01 08:57 44.72742 26.40862 36320 ft 421 kts 321°
2026-05-01 08:58 44.77303 26.35712 36317 ft 421 kts 321°
2026-05-01 08:58 44.81854 26.30564 36318 ft 421 kts 321°
2026-05-01 08:59 44.86400 26.25412 36315 ft 421 kts 321°
2026-05-01 08:59 44.90968 26.20224 36314 ft 422 kts 321°
2026-05-01 09:00 44.95504 26.15061 36307 ft 422 kts 321°
2026-05-01 09:00 45.00067 26.09855 36305 ft 422 kts 321°
2026-05-01 09:01 45.04630 26.04640 36302 ft 423 kts 321°
2026-05-01 09:01 45.09201 25.99406 36299 ft 422 kts 321°
2026-05-01 09:02 45.13741 25.94198 36291 ft 422 kts 321°
2026-05-01 09:02 45.18317 25.88936 36286 ft 422 kts 321°
2026-05-01 09:03 45.22857 25.83702 36274 ft 421 kts 321°
2026-05-01 09:03 45.27385 25.78472 36261 ft 422 kts 321°
2026-05-01 09:04 45.31930 25.73210 36253 ft 422 kts 321°
2026-05-01 09:04 45.36449 25.67967 36243 ft 422 kts 321°
2026-05-01 09:05 45.41001 25.62676 36243 ft 423 kts 321°
2026-05-01 09:05 45.45538 25.57391 36240 ft 423 kts 321°
2026-05-01 09:06 45.50096 25.52069 36244 ft 427 kts 321°
2026-05-01 09:06 45.54738 25.46639 36262 ft 434 kts 322°
2026-05-01 09:07 45.59422 25.41145 36269 ft 441 kts 322°
2026-05-01 09:07 45.64152 25.35585 36269 ft 442 kts 322°
2026-05-01 09:08 45.68893 25.30000 36276 ft 442 kts 321°
2026-05-01 09:08 45.73608 25.24434 36280 ft 441 kts 321°
2026-05-01 09:09 45.78336 25.18839 36285 ft 441 kts 321°
2026-05-01 09:09 45.83089 25.13202 36289 ft 442 kts 322°
2026-05-01 09:10 45.87797 25.07606 36289 ft 443 kts 322°
2026-05-01 09:10 45.92524 25.01977 36290 ft 443 kts 322°
2026-05-01 09:11 45.97272 24.96305 36291 ft 443 kts 322°
2026-05-01 09:11 46.01989 24.90659 36291 ft 442 kts 322°
2026-05-01 09:12 46.06710 24.84995 36293 ft 442 kts 322°
2026-05-01 09:12 46.11402 24.79355 36298 ft 443 kts 322°
2026-05-01 09:13 46.16118 24.73672 36301 ft 443 kts 322°
2026-05-01 09:13 46.20844 24.67962 36306 ft 443 kts 322°
2026-05-01 09:14 46.25540 24.62277 36307 ft 442 kts 322°
2026-05-01 09:14 46.30242 24.56570 36311 ft 442 kts 322°
2026-05-01 09:15 46.34937 24.50858 36314 ft 442 kts 322°
2026-05-01 09:15 46.39653 24.45110 36320 ft 443 kts 323°
2026-05-01 09:16 46.44337 24.39383 36323 ft 442 kts 323°
2026-05-01 09:17 46.51363 24.30772 36325 ft 442 kts 322°
2026-05-01 09:17 46.58379 24.22145 36322 ft 442 kts 322°
2026-05-01 09:18 46.65418 24.13456 36319 ft 442 kts 323°
2026-05-01 09:19 46.72440 24.04758 36314 ft 443 kts 323°
2026-05-01 09:20 46.79465 23.96026 36316 ft 443 kts 323°
2026-05-01 09:21 46.88805 23.84367 36321 ft 443 kts 323°
2026-05-01 09:21 46.95779 23.75625 36323 ft 443 kts 324°
2026-05-01 09:22 47.05107 23.63883 36324 ft 443 kts 324°
2026-05-01 09:23 47.12089 23.55060 36314 ft 443 kts 324°
2026-05-01 09:24 47.19085 23.46186 36324 ft 442 kts 324°
2026-05-01 09:25 47.28345 23.34386 36335 ft 441 kts 324°
2026-05-01 09:26 47.35279 23.25520 36335 ft 440 kts 324°
2026-05-01 09:26 47.42309 23.16864 36349 ft 436 kts 329°
2026-05-01 09:27 47.49657 23.09032 36345 ft 435 kts 330°
2026-05-01 09:28 47.54536 23.03790 36378 ft 435 kts 330°
2026-05-01 09:28 47.59432 22.98499 36359 ft 435 kts 330°
2026-05-01 09:29 47.66689 22.90618 36362 ft 433 kts 331°
2026-05-01 09:30 47.73989 22.82654 36364 ft 433 kts 331°
2026-05-01 09:30 47.81242 22.74715 36362 ft 434 kts 332°
2026-05-01 09:31 47.86113 22.69366 36372 ft 434 kts 331°
2026-05-01 09:32 47.93317 22.61428 36370 ft 432 kts 332°
2026-05-01 09:32 48.00560 22.53429 36358 ft 431 kts 332°
2026-05-01 09:33 48.05360 22.48104 36351 ft 431 kts 332°
2026-05-01 09:34 48.12568 22.40094 36356 ft 432 kts 333°
2026-05-01 09:34 48.19774 22.32052 36349 ft 430 kts 332°
2026-05-01 09:35 48.26982 22.23983 36346 ft 431 kts 332°
2026-05-01 09:36 48.31747 22.18628 36345 ft 431 kts 332°
2026-05-01 09:36 48.34142 22.15931 36153 ft 430 kts 332°
2026-05-01 09:36 48.36550 22.13223 36255 ft 431 kts 332°
2026-05-01 09:37 48.41334 22.07828 36321 ft 433 kts 332°
2026-05-01 09:37 48.48558 21.99644 36345 ft 433 kts 332°
2026-05-01 09:38 48.55770 21.91449 36346 ft 433 kts 332°
2026-05-01 09:39 48.62928 21.83285 36241 ft 432 kts 332°
2026-05-01 09:39 48.65319 21.80547 36029 ft 433 kts 332°
2026-05-01 09:39 48.67735 21.77777 35743 ft 434 kts 333°
2026-05-01 09:40 48.70110 21.75051 35419 ft 431 kts 333°
2026-05-01 09:40 48.74829 21.69616 34448 ft 428 kts 334°
2026-05-01 09:40 48.77210 21.66886 33802 ft 427 kts 334°
2026-05-01 09:41 48.79570 21.64181 33092 ft 429 kts 334°
2026-05-01 09:41 48.84300 21.58747 31611 ft 432 kts 334°
2026-05-01 09:41 48.86690 21.55987 30860 ft 435 kts 333°
2026-05-01 09:42 48.89099 21.53204 30218 ft 433 kts 333°
2026-05-01 09:42 48.91478 21.50445 29761 ft 436 kts 333°
2026-05-01 09:42 48.96249 21.44895 29021 ft 428 kts 333°
2026-05-01 09:43 49.00946 21.39422 27999 ft 421 kts 333°
2026-05-01 09:43 49.03252 21.36733 27449 ft 418 kts 333°
2026-05-01 09:43 49.05538 21.34063 26904 ft 415 kts 332°
2026-05-01 09:44 49.10077 21.28759 25918 ft 409 kts 332°
2026-05-01 09:44 49.12329 21.26123 25445 ft 406 kts 332°
2026-05-01 09:44 49.14543 21.23527 25034 ft 404 kts 332°
2026-05-01 09:45 49.16758 21.20929 24562 ft 401 kts 331°
2026-05-01 09:45 49.21132 21.15788 23657 ft 396 kts 331°
2026-05-01 09:45 49.23316 21.13218 23175 ft 392 kts 331°
2026-05-01 09:46 49.25458 21.10692 22694 ft 391 kts 331°
2026-05-01 09:46 49.27601 21.08161 22239 ft 388 kts 331°
2026-05-01 09:46 49.29722 21.05656 21761 ft 386 kts 330°
2026-05-01 09:46 49.31815 21.03180 21286 ft 383 kts 330°
2026-05-01 09:47 49.33913 21.00698 20811 ft 380 kts 330°
2026-05-01 09:47 49.36029 20.98247 20357 ft 378 kts 331°
2026-05-01 09:47 49.38098 20.95871 19843 ft 376 kts 330°
2026-05-01 09:47 49.40201 20.93452 19332 ft 373 kts 330°
2026-05-01 09:48 49.42246 20.91096 18834 ft 371 kts 330°
2026-05-01 09:48 49.44316 20.88707 18357 ft 368 kts 330°
2026-05-01 09:48 49.46337 20.86371 17929 ft 365 kts 330°
2026-05-01 09:48 49.48364 20.84022 17493 ft 363 kts 330°
2026-05-01 09:49 49.50355 20.81718 16996 ft 362 kts 330°
2026-05-01 09:49 49.52348 20.79407 16520 ft 358 kts 330°
2026-05-01 09:49 49.54326 20.77110 16074 ft 355 kts 329°
2026-05-01 09:49 49.56302 20.74815 15624 ft 353 kts 329°
2026-05-01 09:50 49.58243 20.72557 15158 ft 351 kts 329°
2026-05-01 09:50 49.60185 20.70297 14735 ft 348 kts 329°
2026-05-01 09:50 49.62083 20.68087 14332 ft 346 kts 329°
2026-05-01 09:50 49.63991 20.65861 13924 ft 343 kts 329°
2026-05-01 09:51 49.65900 20.63631 13510 ft 342 kts 329°
2026-05-01 09:51 49.67786 20.61428 12973 ft 342 kts 328°
2026-05-01 09:51 49.69672 20.59222 12468 ft 339 kts 328°
2026-05-01 09:51 49.71532 20.57042 11994 ft 337 kts 328°
2026-05-01 09:52 49.73407 20.54843 11518 ft 334 kts 328°
2026-05-01 09:52 49.75232 20.52702 11063 ft 333 kts 328°
2026-05-01 09:52 49.77059 20.50556 10613 ft 330 kts 328°
2026-05-01 09:52 49.78869 20.48425 10414 ft 318 kts 328°
2026-05-01 09:53 49.80553 20.46428 10363 ft 292 kts 328°
2026-05-01 09:53 49.82113 20.44577 10309 ft 275 kts 329°
2026-05-01 09:53 49.83616 20.42808 9940 ft 273 kts 329°
2026-05-01 09:53 49.85127 20.41036 9568 ft 271 kts 328°
2026-05-01 09:54 49.86625 20.39277 9214 ft 269 kts 328°
2026-05-01 09:54 49.87959 20.37704 8896 ft 267 kts 328°
2026-05-01 09:54 49.89435 20.35964 8484 ft 267 kts 327°
2026-05-01 09:54 49.90924 20.34203 8075 ft 267 kts 327°
2026-05-01 09:55 49.92401 20.32456 7672 ft 266 kts 326°
2026-05-01 09:55 49.93863 20.30723 7262 ft 265 kts 326°
2026-05-01 09:55 49.95317 20.28999 6857 ft 264 kts 326°
2026-05-01 09:55 49.96786 20.27255 6445 ft 264 kts 325°
2026-05-01 09:56 49.98224 20.25548 6045 ft 263 kts 325°
2026-05-01 09:56 49.99685 20.23811 5661 ft 261 kts 324°
2026-05-01 09:56 50.01055 20.22180 5324 ft 259 kts 324°
2026-05-01 09:56 50.02473 20.20492 5003 ft 255 kts 324°
2026-05-01 09:57 50.03876 20.18818 4701 ft 251 kts 324°
2026-05-01 09:57 50.05249 20.17179 4398 ft 248 kts 323°
2026-05-01 09:57 50.06602 20.15563 4103 ft 244 kts 323°
2026-05-01 09:57 50.07910 20.13999 4000 ft 231 kts 323°
2026-05-01 09:58 50.09171 20.12489 4000 ft 229 kts 323°
2026-05-01 09:58 50.10430 20.10980 4002 ft 228 kts 323°
2026-05-01 09:58 50.11517 20.09181 3983 ft 230 kts 298°
2026-05-01 09:58 50.11842 20.06759 3991 ft 236 kts 267°
2026-05-01 09:59 50.11516 20.04243 3855 ft 234 kts 257°
2026-05-01 09:59 50.11086 20.01832 3570 ft 231 kts 257°
2026-05-01 09:59 50.10705 19.99461 3255 ft 223 kts 259°
2026-05-01 09:59 50.10373 19.97154 3002 ft 210 kts 259°
2026-05-01 10:00 50.10079 19.95029 2769 ft 195 kts 259°
2026-05-01 10:00 50.09810 19.93090 2515 ft 175 kts 259°
2026-05-01 10:00 50.09562 19.91311 2249 ft 160 kts 259°
2026-05-01 10:00 50.09338 19.89717 2012 ft 144 kts 259°
2026-05-01 10:01 50.09131 19.88212 1831 ft 140 kts 256°
2026-05-01 10:01 50.08927 19.86735 1663 ft 141 kts 256°
2026-05-01 10:01 50.08713 19.85251 1514 ft 140 kts 257°
2026-05-01 10:01 50.08509 19.83785 1304 ft 139 kts 258°
2026-05-01 10:02 50.08313 19.82329 1117 ft 138 kts 258°
2026-05-01 10:02 50.08106 19.80843 949 ft 139 kts 257°
2026-05-01 10:02 50.07899 19.79388 801 ft 134 kts 255°
2026-05-01 10:02 50.07758 19.78397 800 ft 54 kts 258°
2026-05-01 10:03 50.07691 19.78101 800 ft 16 kts 194°
2026-05-01 10:03 50.07591 19.78088 800 ft 10 kts 184°
2026-05-01 10:03 50.07516 19.78083 800 ft 11 kts 180°
2026-05-01 10:03 50.07478 19.78171 800 ft 11 kts 85°
2026-05-01 10:04 50.07495 19.78307 800 ft 15 kts 78°
2026-05-01 10:04 50.07517 19.78471 800 ft 15 kts 78°
2026-05-01 10:04 50.07541 19.78640 800 ft 17 kts 78°
2026-05-01 10:04 50.07568 19.78825 800 ft 18 kts 77°
2026-05-01 10:05 50.07597 19.79036 800 ft 19 kts 78°
2026-05-01 10:05 50.07625 19.79244 800 ft 19 kts 78°
2026-05-01 10:05 50.07655 19.79454 800 ft 19 kts 78°
2026-05-01 10:05 50.07681 19.79660 800 ft 19 kts 80°
2026-05-01 10:06 50.07708 19.79835 800 ft 6 kts 84°
2026-05-01 10:06 50.07677 19.79873 800 ft 7 kts 162°
2026-05-01 10:06 50.07622 19.79894 800 ft 8 kts 168°
2026-05-01 10:06 50.07555 19.79916 800 ft 10 kts 168°
2026-05-01 10:07 50.07512 19.79985 800 ft 10 kts 87°
2026-05-01 10:07 50.07525 19.80089 800 ft 5 kts 77°
2026-05-01 10:07 50.07522 19.80117 800 ft 2 kts 123°
2026-05-01 10:07 50.07499 19.80133 800 ft 4 kts 165°
2026-05-01 10:08 50.07483 19.80139 800 ft 0 kts 166°